Simultaneous Nadir Overpasses (SNOs) Predictions

Prediction of SNOs between METOP-B and TERRA Satellite Orbit:

Table of predicted SNOs for the next 14.0 days since TLE Epoch: 3/11/2017
Index Date (METOP-B) Time (METOP-B) Lat,Lon (METOP-B) SZA (METOP-B ) Date (TERRA) Time (TERRA) Lat,Lon (TERRA) SZA (TERRA ) Distance(km) Time Diff (sec)
1 03/11/2017 19:32:24 -81.31, 114.29 92.80 03/11/2017 19:33:17 -81.32, 114.45 92.75 2.77 53
2 03/11/2017 20:23:04 81.32, -77.93 87.25 03/11/2017 20:22:43 81.33, -77.82 87.25 1.99 21
3 03/14/2017 15:06:46 -81.32,-179.15 93.86 03/14/2017 15:07:33 -81.31,-179.27 93.86 2.07 47
4 03/14/2017 15:57:26 81.32, -11.41 86.18 03/14/2017 15:56:59 81.32, -11.57 86.14 2.79 27
5 03/17/2017 10:41:08 -81.32,-112.61 94.93 03/17/2017 10:41:48 -81.32,-112.70 94.92 1.59 40
6 03/
